Southport, FL

11:24 AM CDT on September 29, 2016 (GMT -0500)
Northwest Florida Beaches International

Weather History for KECP - February, 2013

Change the Weather History Date:

Wednesday, February 27, 2013

  Actual Average Record
Temperature  
Mean Temperature 54 °F -  
Max Temperature 62 °F - 77 °F (2011)
Min Temperature 46 °F - 33 °F (2016)
Degree Days  
Heating Degree Days 11    
Cooling Degree Days 0    
Growing Degree Days 4 (Base 50)    
Moisture  
Dew Point 42 °F    
Average Humidity 68    
Maximum Humidity 93    
Minimum Humidity 42    
Precipitation  
Precipitation 0.00 in - 0.11 in (2012)
Month to date precipitation  
Year to date precipitation  
Sea Level Pressure  
Sea Level Pressure 29.99 in    
Wind  
Wind Speed 4 mph (WSW)    
Max Wind Speed 14 mph    
Max Gust Speed 18 mph    
Visibility 10 miles    
Events      
T = Trace of Precipitation, MM = Missing Value Source: NWS Daily Summary

Daily Weather History Graph

Daily Weather History Graph

Search for Another Location

Airport or City:

Trip Planner

Search our weather history database for the weather conditions in past years. The results will help you decide how hot, cold, wet, or windy it might be!

Date:

Astronomy

Feb. 27, 2013 Rise Set
Actual Time 7:11 AM EST 6:40 PM EST
Civil Twilight 6:47 AM EST 7:04 PM EST
Nautical Twilight 6:19 AM EST 7:32 PM EST
Astronomical Twilight 5:51 AM EST 8:00 PM EST
Moon 8:47 PM EST (2/27) 7:57 AM EST (2/27)
Length of Visible Light 12h 17m
Length of Day
11h 29m
Waning Gibbous, 96% of the Moon is Illuminated
Feb 27
Waning Gibbous
Mar 4
Last Quarter
Mar 11
New
Mar 19
First Quarter
Mar 27
Full

Hourly Weather History & Observations

Time (EST) Temp. Dew Point Humidity Pressure Visibility Wind Dir Wind Speed Gust Speed Precip Events Conditions
12:53 AM 52.0 °F 46.0 °F 80% 29.93 in 10.0 mi WNW 5.8 mph - N/A   Clear
1:53 AM 53.1 °F 43.0 °F 69% 29.94 in 10.0 mi West 8.1 mph - N/A   Clear
2:53 AM 52.0 °F 43.0 °F 71% 29.96 in 10.0 mi West 3.5 mph - N/A   Clear
3:53 AM 50.0 °F 44.1 °F 80% 29.96 in 10.0 mi Calm Calm - N/A   Clear
4:53 AM 48.9 °F 44.1 °F 83% 29.96 in 10.0 mi Calm Calm - N/A   Clear
5:53 AM 48.0 °F 45.0 °F 89% 29.97 in 10.0 mi Calm Calm - N/A   Clear
6:53 AM 48.0 °F 45.0 °F 89% 29.99 in 10.0 mi Calm Calm - N/A   Clear
7:53 AM 48.0 °F 45.0 °F 89% 30.00 in 10.0 mi Calm Calm - N/A   Clear
8:53 AM 50.0 °F 44.1 °F 80% 30.02 in 10.0 mi North 3.5 mph - N/A   Clear
9:53 AM 52.0 °F 41.0 °F 66% 30.04 in 10.0 mi Calm Calm - N/A   Clear
10:53 AM 54.0 °F 39.0 °F 57% 30.05 in 10.0 mi Calm Calm - N/A   Clear
11:53 AM 57.0 °F 37.0 °F 47% 30.05 in 10.0 mi Calm Calm - N/A   Clear
12:53 PM 60.1 °F 37.0 °F 42% 30.03 in 10.0 mi WSW 8.1 mph - N/A   Clear
1:53 PM 61.0 °F 37.0 °F 41% 30.01 in 10.0 mi WSW 10.4 mph - N/A   Clear
2:53 PM 61.0 °F 42.1 °F 50% 29.99 in 10.0 mi SSW 11.5 mph 17.3 mph N/A   Clear
3:53 PM 61.0 °F 41.0 °F 48% 29.99 in 10.0 mi SW 12.7 mph - N/A   Clear
4:53 PM 60.1 °F 41.0 °F 49% 29.98 in 10.0 mi SW 11.5 mph - N/A   Clear
5:53 PM 59.0 °F 39.9 °F 49% 29.98 in 10.0 mi SW 11.5 mph - N/A   Clear
6:53 PM 55.0 °F 43.0 °F 64% 29.99 in 10.0 mi SW 4.6 mph - N/A   Clear
7:53 PM 53.1 °F 43.0 °F 69% 30.01 in 10.0 mi Calm Calm - N/A   Clear
8:53 PM 52.0 °F 44.1 °F 74% 30.00 in 10.0 mi SSW 5.8 mph - N/A   Clear
9:53 PM 48.9 °F 44.1 °F 83% 30.01 in 10.0 mi Calm Calm - N/A   Clear
10:53 PM 48.0 °F 44.1 °F 86% 30.01 in 10.0 mi Calm Calm - N/A   Clear
11:53 PM 46.9 °F 44.1 °F 90% 30.00 in 10.0 mi Calm Calm - N/A   Clear